Amelia, Virginia, United States
Lat: 37.37N, Lon: 77.92W
Wx Zone: VAZ068
Local Info
Past Weather Observations for Friday, July 25, 2014

NOTE: This archive is for the closest National Weather Service station to Amelia. Information may differ from the station used for current weather conditions.

Click here for Long-term Archive

Time Weather Temperature Dewpoint Humidity Pressure Winds Precip Visibility
23:55
Clear
72°F / 22°C 68°F / 20°C 88% 30.04 in
(1017 mb)
Calm - 10SM
23:35
Clear
72°F / 22°C 68°F / 20°C 88% 30.04 in
(1017 mb)
S 3.5 mph
(S 6 kph)
- 10SM
23:15
Clear
72°F / 22°C 68°F / 20°C 88% 30.04 in
(1017 mb)
Calm - 10SM
22:55
Clear
72°F / 22°C 68°F / 20°C 88% 30.04 in
(1017 mb)
SSE 3.5 mph
(SSE 6 kph)
- 10SM
22:35
Clear
72°F / 22°C 68°F / 20°C 88% 30.04 in
(1017 mb)
Calm - 10SM
22:15
Clear
70°F / 21°C 68°F / 20°C 94% 30.04 in
(1017 mb)
S 3.5 mph
(S 6 kph)
- 10SM
21:55
Clear
70°F / 21°C 66°F / 19°C 88% 30.04 in
(1017 mb)
Calm - 10SM
21:35
Clear
70°F / 21°C 63°F / 17°C 78% 30.04 in
(1017 mb)
Calm - 7SM
21:15
Clear
70°F / 21°C 61°F / 16°C 73% 30.04 in
(1017 mb)
Calm - 10SM
20:55
Clear
72°F / 22°C 64°F / 18°C 78% 30.04 in
(1017 mb)
Calm - 7SM
20:35
Clear
72°F / 22°C 66°F / 19°C 83% 30.04 in
(1017 mb)
Calm - 7SM
20:15
Clear
73°F / 23°C 66°F / 19°C 78% 30.04 in
(1017 mb)
Calm - 10SM
19:55
Clear
73°F / 23°C 66°F / 19°C 78% 30.04 in
(1017 mb)
Calm - 10SM
19:35
Clear
75°F / 24°C 63°F / 17°C 65% 30.04 in
(1017 mb)
Calm - 10SM
19:15
Clear
81°F / 27°C 68°F / 20°C 66% 30.04 in
(1017 mb)
Calm - 10SM
18:55
Clear
84°F / 29°C 66°F / 19°C 55% 30.04 in
(1017 mb)
Calm - 10SM
18:35
Clear
84°F / 29°C 66°F / 19°C 55% 30.04 in
(1017 mb)
Calm - 10SM
18:15
Clear
88°F / 31°C 64°F / 18°C 46% 30.04 in
(1017 mb)
Calm - 10SM
17:55
Clear
88°F / 31°C 63°F / 17°C 43% 30.04 in
(1017 mb)
Calm - 10SM
17:35
Partly Cloudy
88°F / 31°C 63°F / 17°C 43% 30.04 in
(1017 mb)
Calm - 10SM
17:15
Partly Cloudy
90°F / 32°C 63°F / 17°C 41% 30.04 in
(1017 mb)
SW 5.8 mph
(SW 9 kph)
- 10SM
16:55
Clear
90°F / 32°C 59°F / 15°C 36% 30.04 in
(1017 mb)
Calm - 10SM
16:35
Clear
90°F / 32°C 61°F / 16°C 38% 30.01 in
(1016 mb)
W 4.6 mph
(W 7 kph)
- 10SM
16:15
Partly Cloudy
90°F / 32°C 61°F / 16°C 38% 30.01 in
(1016 mb)
SSW 5.8 mph
(SSW 9 kph)
- 10SM
15:55
Clear
90°F / 32°C 61°F / 16°C 38% 30.01 in
(1016 mb)
Calm - 10SM
15:35
Partly Cloudy
88°F / 31°C 59°F / 15°C 38% 30.01 in
(1016 mb)
Calm - 10SM
15:15
Partly Cloudy
90°F / 32°C 61°F / 16°C 38% 30.01 in
(1016 mb)
Calm - 10SM
14:55
Partly Cloudy
90°F / 32°C 61°F / 16°C 38% 30.01 in
(1016 mb)
SSW 3.5 mph
(SSW 6 kph)
- 10SM
14:35
Partly Cloudy
90°F / 32°C 59°F / 15°C 36% 30.04 in
(1017 mb)
S 3.5 mph
(S 6 kph)
- 10SM
14:15
Partly Cloudy
90°F / 32°C 61°F / 16°C 38% 30.04 in
(1017 mb)
Calm - 7SM
13:55
Mostly Cloudy
90°F / 32°C 57°F / 14°C 33% 30.04 in
(1017 mb)
E 3.5 mph
(E 6 kph)
- 10SM
13:30
Mostly Cloudy
88°F / 31°C 59°F / 15°C 38% 30.04 in
(1017 mb)
Calm - 10SM
13:15
Mostly Cloudy
86°F / 30°C 61°F / 16°C 43% 30.04 in
(1017 mb)
S 3.5 mph
(S 6 kph)
- 10SM
12:55
Mostly Cloudy
88°F / 31°C 59°F / 15°C 38% 30.06 in
(1018 mb)
Calm - 10SM
12:35
Clear
90°F / 32°C 61°F / 16°C 38% 30.06 in
(1018 mb)
Calm - 10SM
12:15
Clear
86°F / 30°C 57°F / 14°C 38% 30.06 in
(1018 mb)
Calm - 10SM
11:55
Clear
86°F / 30°C 59°F / 15°C 40% 30.06 in
(1018 mb)
Calm - 10SM
11:35
Partly Cloudy
86°F / 30°C 57°F / 14°C 38% 30.06 in
(1018 mb)
E 3.5 mph
(E 6 kph)
- 10SM
11:15
Clear
86°F / 30°C 61°F / 16°C 43% 30.06 in
(1018 mb)
Calm - 10SM
10:55
Clear
84°F / 29°C 59°F / 15°C 43% 30.06 in
(1018 mb)
NNE 5.8 mph
(NNE 9 kph)
- 10SM
10:35
Clear
84°F / 29°C 61°F / 16°C 45% 30.09 in
(1019 mb)
Calm - 10SM
10:15
Clear
82°F / 28°C 61°F / 16°C 48% 30.06 in
(1018 mb)
N 8.1 mph
(N 13 kph)
- 10SM
09:55
Clear
82°F / 28°C 63°F / 17°C 51% 30.09 in
(1019 mb)
NE 5.8 mph
(NE 9 kph)
- 10SM
09:35
Clear
82°F / 28°C 64°F / 18°C 55% 30.09 in
(1019 mb)
NE 5.8 mph
(NE 9 kph)
- 10SM
09:15
Clear
81°F / 27°C 66°F / 19°C 62% 30.06 in
(1018 mb)
NE 5.8 mph
(NE 9 kph)
- 10SM
08:55
Clear
81°F / 27°C 66°F / 19°C 62% 30.09 in
(1019 mb)
NE 5.8 mph
(NE 9 kph)
- 10SM
08:35
Clear
79°F / 26°C 66°F / 19°C 65% 30.06 in
(1018 mb)
NE 4.6 mph
(NE 7 kph)
- 10SM
08:15
Clear
77°F / 25°C 66°F / 19°C 69% 30.06 in
(1018 mb)
Calm - 10SM
07:55
Clear
75°F / 24°C 66°F / 19°C 74% 30.06 in
(1018 mb)
NNW 4.6 mph
(NNW 7 kph)
- 10SM
07:35
Clear
75°F / 24°C 66°F / 19°C 74% 30.06 in
(1018 mb)
N 4.6 mph
(N 7 kph)
- 10SM
07:15
Clear
75°F / 24°C 72°F / 22°C 89% 30.06 in
(1018 mb)
NW 4.6 mph
(NW 7 kph)
- 10SM
06:55
Clear
73°F / 23°C 72°F / 22°C 94% 30.06 in
(1018 mb)
Calm - 10SM
06:35
Clear
73°F / 23°C 70°F / 21°C 89% 30.06 in
(1018 mb)
WNW 3.5 mph
(WNW 6 kph)
- 7SM
06:15
Clear
72°F / 22°C 70°F / 21°C 94% 30.06 in
(1018 mb)
Calm - 7SM
05:55
Clear
70°F / 21°C 68°F / 20°C 94% 30.04 in
(1017 mb)
Calm - 4SM
05:35
Clear
68°F / 20°C 66°F / 19°C 94% 30.04 in
(1017 mb)
Calm - 4SM
05:15
Partly Cloudy
68°F / 20°C 66°F / 19°C 94% 30.04 in
(1017 mb)
Calm - 4SM
04:55
Clear
70°F / 21°C 66°F / 19°C 88% 30.04 in
(1017 mb)
Calm - 5SM
04:35
Clear
70°F / 21°C 66°F / 19°C 88% 30.01 in
(1016 mb)
Calm - 7SM
04:15
Clear
70°F / 21°C 66°F / 19°C 88% 30.01 in
(1016 mb)
W 3.5 mph
(W 6 kph)
- 5SM
03:55
Clear
70°F / 21°C 68°F / 20°C 94% 30.01 in
(1016 mb)
Calm - 7SM
03:35
Partly Cloudy
70°F / 21°C 68°F / 20°C 94% 29.98 in
(1015 mb)
NW 3.5 mph
(NW 6 kph)
- 4SM
03:15
Mostly Cloudy
70°F / 21°C 70°F / 21°C 100% N/A NW 3.5 mph
(NW 6 kph)
- 4SM
02:55
Overcast
72°F / 22°C 36°F / 2°C 27% 29.98 in
(1015 mb)
NW 3.5 mph
(NW 6 kph)
- 4SM
02:35
Overcast
N/A N/A N/A 29.98 in
(1015 mb)
Calm - 3SM
02:15
Overcast
72°F / 22°C 70°F / 21°C 94% 30.01 in
(1016 mb)
Calm - 4SM
01:55
Overcast
72°F / 22°C 70°F / 21°C 94% 30.01 in
(1016 mb)
WNW 3.5 mph
(WNW 6 kph)
- 5SM
01:35
Overcast
72°F / 22°C 70°F / 21°C 94% 30.01 in
(1016 mb)
WNW 5.8 mph
(WNW 9 kph)
- 5SM
01:15
Overcast
73°F / 23°C 72°F / 22°C 94% 29.98 in
(1015 mb)
WNW 5.8 mph
(WNW 9 kph)
- 5SM
00:55
Overcast
73°F / 23°C 72°F / 22°C 94% 29.98 in
(1015 mb)
WNW 5.8 mph
(WNW 9 kph)
- 5SM
00:35
Overcast
73°F / 23°C 72°F / 22°C 94% 29.98 in
(1015 mb)
NW 4.6 mph
(NW 7 kph)
- 5SM
00:15
Overcast
73°F / 23°C 72°F / 22°C 94% 29.98 in
(1015 mb)
NW 4.6 mph
(NW 7 kph)
- 5SM
Time Weather Temperature Dewpoint Humidity Pressure Winds Precip Visibility


Weather for websites

WeatherForYou.com, LLC is not responsible for any damages or problems caused by this service. Current weather conditions are obtained from the closest station including government and personal stations which may have varying degrees of accuracy. Weather forecasts are derived from the NOAA NDFD. Like all things, this site belongs to Jesus Christ... He just trusts me to maintain it. If you have any questions or comments email webmaster@weatherforyou.com

Copyright © 2014, WeatherForYou.com LLC. All rights reserved.